Theta_e
335 322 325 330 337 339 340 340 341 341 341 340 338 334 334 336 340 340 341 341 342 343 342 341 340 339 340 339 336 337 337 336 335 335 335 336 336 336 336 337 336 335 336
331 321 326 330 332 336 338 339 340 341 341 340 337 335 335 337 340 341 341 342 342 344 343 340 338 337 335 333 333 335 334 334 335 335 336 336 336 336 335 336 335 334 333
338 322 325 328 331 334 337 338 338 340 341 340 339 338 337 338 340 341 342 342 341 342 342 340 339 335 333 334 336 336 334 334 333 334 337 336 335 334 333 332 333 333 333
338 326 326 326 329 333 336 337 337 339 341 341 340 339 338 339 340 341 341 341 339 338 339 341 341 335 334 334 335 335 334 332 334 335 334 335 336 333 331 332 332 333 333
338 340 328 325 328 332 335 336 337 337 340 341 341 340 339 339 339 341 340 339 336 335 335 336 337 335 334 334 333 332 331 332 334 335 332 332 334 335 334 332 331 333 332
334 338 338 325 326 331 335 336 336 337 341 341 342 341 340 339 340 341 338 336 333 330 323 332 334 334 335 335 333 331 329 332 334 334 334 332 332 333 333 333 333 331 331
335 337 339 327 326 331 333 335 335 338 346 343 343 342 340 339 340 340 337 328 331 324 327 328 332 333 335 334 332 330 330 331 333 334 334 331 330 333 332 332 330 330 330
337 339 338 329 327 330 333 335 335 338 343 343 344 345 341 340 340 339 329 323 325 324 324 329 331 333 335 334 332 330 329 330 332 333 332 329 330 333 333 329 329 329 328
340 343 342 331 328 330 333 335 334 336 341 342 344 345 342 341 340 339 333 324 328 323 330 331 328 331 333 334 332 329 329 330 331 333 331 329 329 331 330 328 327 326 324
342 345 347 335 332 332 334 334 334 334 338 343 343 344 342 340 339 338 331 329 326 326 329 328 332 332 331 331 332 330 328 327 330 331 330 328 328 329 329 328 326 324 323
347 347 347 345 340 338 337 335 336 335 335 342 345 344 343 341 340 338 330 331 326 330 327 330 330 330 329 328 331 331 327 327 329 331 330 327 327 327 328 327 326 324 323
345 350 348 347 345 345 344 342 336 336 335 338 343 343 343 342 340 337 334 333 329 331 333 333 330 328 327 328 329 331 326 324 328 329 326 326 325 325 326 326 325 323 323
344 347 348 349 346 346 344 345 341 341 338 339 341 342 341 341 341 338 337 334 334 333 334 332 331 328 329 331 331 330 325 327 327 327 324 323 323 324 324 323 323 322 322
338 344 346 348 348 345 346 343 343 343 342 342 340 341 342 341 340 338 336 335 334 333 331 331 328 328 329 330 330 329 326 327 327 325 322 321 322 323 323 323 322 322 320
325 339 345 347 348 347 346 343 341 343 343 343 342 341 343 342 340 338 337 335 333 333 329 332 328 328 329 330 329 326 326 326 326 324 322 321 322 321 321 321 321 322 321
324 328 344 344 348 347 345 345 342 342 343 343 343 342 341 343 340 339 338 336 334 332 331 332 329 327 328 328 328 325 325 325 324 323 321 321 322 321 321 321 322 321 321
323 327 333 342 345 346 346 346 343 342 345 342 342 343 342 343 341 339 338 336 334 332 331 331 327 325 327 328 326 324 325 325 323 323 321 322 321 320 321 321 321 320 320
324 325 330 336 339 345 345 345 343 341 342 345 343 342 343 342 341 339 338 337 334 332 331 330 327 326 326 327 327 325 326 323 323 323 321 321 321 320 320 319 319 319 319
322 322 322 322 334 338 345 345 342 339 340 342 344 343 343 343 341 340 338 336 335 332 331 329 326 326 326 327 326 325 326 323 321 323 323 321 320 320 320 320 319 318 318
320 320 320 319 320 326 339 344 344 341 339 339 340 343 342 340 342 340 338 337 335 333 331 328 327 328 327 327 326 325 325 322 321 322 321 321 320 321 319 319 318 318 318
322 323 325 325 323 323 325 336 341 343 341 340 338 338 342 338 338 338 338 336 334 332 330 328 328 327 327 327 327 325 325 322 321 321 322 321 321 320 320 319 317 318 318
324 325 325 328 329 328 327 325 334 339 343 340 338 336 339 340 337 337 336 335 333 332 330 329 328 327 326 327 326 325 323 323 323 322 321 321 320 320 320 320 318 318 318
325 329 331 331 331 330 330 329 331 338 339 337 336 336 334 339 337 337 336 334 333 332 329 328 327 326 324 326 326 324 323 323 323 322 321 321 320 319 322 321 319 318 319
326 326 330 332 333 332 332 332 336 337 334 333 333 333 334 335 335 333 333 333 330 329 328 328 327 326 324 324 326 324 323 323 323 323 322 321 322 318 319 320 320 319 320
325 326 326 330 332 334 335 334 337 335 334 333 332 331 332 332 332 332 332 330 330 329 327 327 327 326 324 323 325 324 323 324 323 322 323 322 323 319 319 319 319 319 320
325 326 328 329 329 330 331 332 335 336 333 332 331 331 331 331 332 331 329 332 329 328 328 327 326 326 324 323 325 324 324 324 323 322 321 321 321 321 321 320 320 319 322
Wind_Speed
17 16 10 10 11 10 10 10 11 11 10 9 9 9 9 10 11 11 12 13 15 15 17 17 17 15 16 15 15 15 17 20 22 22 24 25 24 22 21 21 23 24 25
20 14 10 11 11 11 12 11 12 13 12 10 9 10 11 11 12 12 13 13 14 13 14 15 15 14 13 18 19 19 18 18 19 22 25 24 22 20 20 23 22 24 23
18 14 12 10 11 11 12 12 12 13 14 13 11 10 11 12 12 14 13 13 12 11 11 14 15 17 19 17 17 17 19 19 20 23 23 18 20 21 19 19 22 21 22
16 14 12 10 9 10 11 11 11 13 14 14 13 12 14 13 13 14 14 11 8 3 7 14 14 16 18 17 18 18 18 18 25 24 21 20 16 17 18 20 20 21 21
17 15 11 9 9 10 12 12 11 12 14 14 14 14 15 15 15 15 14 13 11 3 6 2 10 14 16 17 17 16 14 18 21 13 21 22 17 16 18 20 21 21 22
19 17 14 10 9 10 12 12 12 11 13 14 14 15 15 15 16 19 18 14 16 15 5 13 5 13 16 15 15 15 18 17 12 22 26 23 19 17 19 20 22 22 22
20 18 15 11 11 11 12 13 12 12 13 14 15 17 17 17 19 20 17 7 14 12 9 15 9 11 15 15 14 15 13 14 12 13 25 22 23 17 19 20 20 22 21
20 17 16 14 12 12 14 15 14 13 14 14 15 17 17 19 21 22 24 5 11 5 5 19 19 17 15 15 15 15 12 7 4 20 22 21 20 18 18 18 19 18 17
20 14 13 17 16 14 15 16 15 14 15 15 16 18 19 19 21 22 17 13 12 7 15 20 20 18 17 16 15 15 12 5 9 20 20 22 20 19 17 18 17 17 17
18 16 12 15 18 17 18 18 17 16 16 17 18 17 19 20 20 21 17 14 15 14 19 18 17 16 14 16 16 15 12 6 8 18 20 21 18 20 16 16 15 16 15
15 18 16 15 16 17 17 19 19 17 16 17 18 19 20 21 22 22 18 18 15 20 17 15 14 14 14 16 17 15 14 6 10 23 21 22 19 16 15 15 15 15 14
19 19 20 20 19 18 16 17 21 20 19 19 19 21 21 21 21 21 20 22 18 18 18 16 14 13 11 19 18 16 14 8 14 21 24 21 18 16 14 15 16 16 16
29 25 24 22 23 22 20 19 20 20 21 20 20 21 24 22 22 23 22 23 20 18 18 18 18 16 19 18 18 18 16 8 21 19 21 18 18 17 15 15 15 15 16
25 32 30 28 26 24 22 24 21 22 23 23 25 25 23 25 24 24 24 25 24 23 21 22 21 21 21 20 19 17 13 12 20 20 20 19 18 16 15 15 16 16 16
17 21 33 31 29 26 23 25 25 23 25 26 25 28 27 27 24 24 24 26 26 24 27 25 24 25 25 26 23 20 17 14 20 21 23 19 19 16 16 16 16 17 17
14 14 26 31 29 28 29 24 27 25 24 25 26 28 32 27 26 25 24 28 26 27 30 27 27 25 25 24 28 23 21 12 23 20 21 19 19 18 17 16 16 16 15
21 26 20 25 27 28 27 26 29 26 24 30 30 26 32 30 27 27 26 23 27 27 30 30 21 18 24 22 26 26 23 17 19 21 20 22 19 18 19 17 16 15 14
20 23 27 27 30 30 31 30 30 27 28 23 29 29 28 32 28 26 25 24 27 28 31 30 27 21 23 23 21 28 22 20 18 22 21 25 22 20 19 17 17 16 15
22 10 7 7 21 31 30 33 32 33 31 28 22 28 29 28 32 27 25 23 24 29 30 31 27 24 28 24 24 28 20 23 22 24 28 23 21 22 21 19 18 17 15
4 5 8 9 11 10 29 27 28 28 33 33 32 24 30 33 26 28 27 23 25 29 31 33 31 29 30 27 26 28 21 25 25 21 27 26 25 24 22 21 19 18 17
3 6 9 13 19 20 16 24 24 28 27 28 32 37 24 30 37 31 27 30 27 29 35 35 29 34 30 28 26 25 18 28 28 23 27 28 28 26 25 20 23 20 20
2 7 11 16 19 20 23 24 26 26 25 26 28 34 33 27 29 34 30 30 31 29 34 35 35 27 28 28 19 21 4 13 23 23 22 23 29 26 26 24 19 20 20
7 2 11 15 19 20 21 21 23 17 16 18 23 30 33 28 31 31 31 30 32 34 33 37 40 34 29 29 26 20 5 4 11 17 23 20 27 25 24 24 18 22 23
9 3 7 13 13 12 17 19 21 16 13 16 17 25 30 24 21 27 29 31 32 32 34 36 40 39 35 27 30 30 20 19 9 5 22 25 22 28 23 23 21 20 18
9 2 7 7 11 8 6 14 14 17 15 16 21 25 29 26 29 24 27 30 32 33 34 37 37 38 39 34 29 32 28 26 25 13 10 15 18 28 25 24 22 21 16
9 6 11 9 5 9 8 13 10 18 19 18 24 24 26 29 26 28 28 29 32 34 35 40 42 44 42 38 28 33 29 22 24 20 9 17 14 24 23 22 22 22 19
Wind_Direction
114 115 132 150 162 163 167 167 171 177 181 179 174 169 167 159 151 145 139 141 140 137 138 145 149 151 147 141 135 130 121 116 112 106 106 103 103 103 104 105 104 104 106
116 123 139 153 161 166 170 174 176 180 184 178 178 172 172 168 162 154 147 146 144 142 146 143 149 140 131 132 136 136 127 121 116 115 116 113 108 110 112 114 110 110 107
120 136 144 146 156 160 166 173 179 183 184 177 179 177 179 174 167 161 156 152 152 154 154 144 145 144 138 134 126 128 127 125 117 113 106 105 104 112 115 116 112 112 111
134 135 147 137 144 158 164 171 180 187 189 184 181 179 180 173 172 166 159 156 147 116 161 145 148 142 142 141 137 136 134 136 128 126 123 111 104 111 116 116 116 115 113
138 140 155 140 143 157 164 168 179 183 189 191 188 186 182 179 168 168 153 151 147 319 360 207 163 152 150 148 142 138 144 146 137 112 121 119 115 115 116 117 115 115 116
148 167 179 159 152 159 166 166 171 183 186 189 191 190 185 181 169 169 169 174 181 164 240 34 196 169 157 154 148 149 157 149 147 124 125 124 120 121 123 126 125 122 119
153 173 173 175 165 164 170 171 171 173 177 183 189 193 188 182 178 176 169 192 189 164 110 131 192 184 167 163 154 153 171 163 157 149 125 125 124 124 125 130 128 128 127
160 163 174 177 175 172 177 174 177 177 178 185 186 188 190 187 186 180 182 198 188 185 213 161 169 182 181 174 164 162 177 187 284 150 125 119 123 122 123 133 134 131 126
149 166 176 179 177 178 183 180 184 185 179 190 190 187 191 195 193 195 190 189 176 199 159 169 173 177 186 181 175 167 185 176 108 132 131 128 142 133 128 132 135 133 128
161 161 184 183 182 182 185 187 188 193 187 189 194 194 194 199 202 201 202 198 176 179 176 187 181 176 186 187 179 178 186 186 137 138 129 138 141 134 137 135 136 133 132
165 171 181 184 192 189 190 193 191 195 201 192 196 198 197 201 203 202 211 202 194 182 191 190 191 189 189 192 184 182 184 175 111 147 142 143 141 136 145 144 142 140 136
187 181 182 186 192 190 185 201 196 198 199 201 198 204 200 197 205 204 207 199 201 194 192 192 201 188 184 192 187 185 182 172 146 146 139 143 142 145 160 150 144 137 134
185 186 186 190 190 189 186 198 198 199 199 203 197 205 203 197 200 202 205 205 204 198 190 199 194 183 181 182 182 187 185 236 142 133 140 140 140 143 163 158 146 140 135
195 186 188 187 192 192 199 194 193 195 200 199 200 200 204 198 200 206 205 199 200 197 196 197 195 181 182 184 188 193 189 197 143 138 141 141 141 147 156 153 146 142 143
242 192 182 186 193 193 196 205 203 202 201 200 201 202 202 202 198 201 200 196 195 193 199 192 195 187 191 183 185 193 197 200 152 143 145 147 149 156 162 159 154 151 146
236 235 181 185 189 189 199 207 207 208 209 201 205 205 206 203 200 198 200 198 201 198 197 192 194 192 200 198 190 182 186 187 141 145 152 154 156 164 165 163 158 155 150
234 214 196 182 192 196 198 207 204 214 212 208 207 209 207 205 203 196 200 201 199 198 197 198 197 202 207 202 189 182 186 178 148 151 158 162 165 167 168 167 163 161 158
236 220 195 193 199 201 204 205 216 216 218 222 208 209 207 206 202 197 199 198 197 199 203 191 192 197 222 196 188 185 188 167 158 164 164 169 172 174 176 175 168 171 173
239 225 206 201 196 201 201 207 214 217 220 224 221 209 205 206 204 202 200 198 198 200 203 189 198 218 215 207 190 195 189 167 169 164 163 165 172 183 178 175 177 181 182
30 332 310 289 268 233 208 201 210 206 216 221 222 218 209 210 206 201 199 197 193 199 196 194 201 191 205 214 196 189 186 174 174 180 165 170 175 184 180 181 183 186 189
241 282 275 271 263 253 237 206 206 195 209 212 215 222 215 215 215 213 210 207 200 189 193 197 199 190 191 201 193 186 187 170 176 190 182 179 179 180 181 184 191 196 201
317 301 272 264 251 242 231 227 220 219 209 206 203 218 217 207 205 211 213 205 197 190 186 190 186 189 197 191 186 173 162 174 173 190 188 182 175 180 185 188 190 189 208
236 4 301 281 272 248 232 232 219 212 191 180 188 207 221 226 220 206 207 215 209 203 194 191 191 191 192 198 198 177 159 181 162 188 188 191 178 183 178 181 183 195 208
93 19 298 308 294 267 227 229 196 185 182 198 195 204 213 212 206 213 213 213 206 202 205 200 194 194 192 197 194 190 187 163 165 161 191 205 195 184 194 187 188 199 201
93 351 299 300 304 286 234 230 216 188 204 201 201 206 213 219 221 212 212 214 207 196 195 193 196 195 196 199 189 190 196 172 179 165 171 196 204 188 194 191 193 200 207
90 20 342 287 263 282 273 248 236 201 190 195 202 198 203 214 212 214 215 208 201 206 204 205 204 199 195 198 200 192 197 176 183 170 170 192 186 186 191 189 191 191 195